This is the latest recevied weather packets stored in our database for station/object KA8DUX-2. If no packets are shown the sender has not sent any weather packets the latest 10 day(s).
| Time | Temp. | Humidity | Pressure | Rain* | Wind** | Luminosity | Snow |
|---|---|---|---|---|---|---|---|
| 1777647810 | 5.56° C | 67% | 1014.2 hPa | 0 mm | - | 210 W/m² | - |
| 1777647506 | 5.56° C | 67% | 1014.4 hPa | 0 mm | - | 190 W/m² | - |
| 1777647203 | 5° C | 69% | 1014.2 hPa | 0 mm | - | 194 W/m² | - |
| 1777646900 | 5.56° C | 69% | 1014.2 hPa | 0 mm | - | 222 W/m² | - |
| 1777646596 | 5° C | 70% | 1014.3 hPa | 0 mm | - | 210 W/m² | - |
| 1777646292 | 5° C | 70% | 1014.2 hPa | 0 mm | - | 212 W/m² | - |
| 1777645990 | 5° C | 71% | 1014 hPa | 0 mm | - | 207 W/m² | - |
| 1777645686 | 5° C | 71% | 1014 hPa | 0 mm | - | 209 W/m² | - |
| 1777645382 | 5° C | 72% | 1014.1 hPa | 0 mm | - | 185 W/m² | - |
| 1777645078 | 4.44° C | 73% | 1014.1 hPa | 0 mm | - | 149 W/m² | - |
| 1777644775 | 4.44° C | 72% | 1014.1 hPa | 0 mm | - | 104 W/m² | - |
| 1777644473 | 4.44° C | 71% | 1014 hPa | 0 mm | - | 67 W/m² | - |
| 1777644169 | 4.44° C | 72% | 1014.2 hPa | 0 mm | - | 69 W/m² | - |
| 1777643865 | 4.44° C | 71% | 1014.3 hPa | 0 mm | - | 85 W/m² | - |
| 1777643563 | 4.44° C | 71% | 1013.9 hPa | 0 mm | - | 91 W/m² | - |
| 1777643259 | 4.44° C | 71% | 1014 hPa | 0 mm | - | 104 W/m² | - |
| 1777642956 | 5° C | 71% | 1013.9 hPa | 0 mm | - | 113 W/m² | - |
| 1777642652 | 4.44° C | 72% | 1014 hPa | 0 mm | - | 113 W/m² | - |
| 1777642350 | 4.44° C | 71% | 1014 hPa | 0 mm | - | 96 W/m² | - |
| 1777642046 | 4.44° C | 72% | 1013.8 hPa | 0 mm | - | 84 W/m² | - |
| 1777641742 | 4.44° C | 72% | 1013.9 hPa | 0 mm | - | 69 W/m² | - |
| 1777641432 | 4.44° C | 71% | 1013.8 hPa | 0 mm | - | 59 W/m² | - |
| 1777641128 | 4.44° C | 72% | 1013.7 hPa | 0 mm | - | 56 W/m² | - |
| 1777640823 | 4.44° C | 71% | 1013.8 hPa | 0 mm | - | 58 W/m² | - |
| 1777640520 | 4.44° C | 71% | 1013.6 hPa | 0 mm | - | 68 W/m² | - |
* Rain latest hour (hover to see other rain measurements)
** Current wind speed in m/s (hover to see current wind gust speed)